Tracking 29093 objects as of 15-Jul-2024
HD Live streaming from Space Station
objects crossing your sky now

FENGYUN 1C DEB

Track FENGYUN 1C DEB now!
10-day predictions


NORAD ID: 33673
Int'l Code: 1999-025DFJ
Perigee: 843.6 km
Apogee: 1,000.2 km
Inclination: 99.4 °
Period: 103.3 minutes
Semi major axis: 7292 km
RCS: 0.0036 m2 (small)
Launch date: May 10, 1999
Source: People's Republic of China (PRC)
Launch site: Taiyaun Space Center, China (TSC)

Note: This is SATELLITE DEBRIS
Your satellite tracking list
Your tracking list is empty




NASA's NSSDC Master Catalog

Two Line Element Set (TLE):
1 33673U 99025DFJ 24196.59206045  .00001316  00000-0  98208-3 0  9991
2 33673  99.3915 229.5175 0107360 180.9741 331.2059 13.93974552827062
Source of the keplerian elements: AFSPC